GFSNE_con_lsi_000.txt.gz
Lid_Strength_Index
3 3 3 3 2 2 2 3 7 10 9 6 3 1 1 0 -0 1 0 -0 -1 -1 -1 -1 -1 -1 -1 -1 0 1 0 1 3 3 3 3 3 3
4 4 4 4 3 2 2 5 5 7 9 5 2 1 1 0 -0 2 1 0 -0 -0 -0 0 -0 -1 -1 -0 1 1 1 2 3 3 3 3 3 3
4 4 4 4 4 3 2 3 4 5 8 6 4 2 1 1 2 2 2 1 1 -0 -0 1 0 0 0 1 2 2 1 2 4 3 3 3 3 3
4 4 5 3 3 3 3 4 4 4 5 6 4 3 2 2 3 4 3 2 2 -0 -1 1 1 1 1 2 2 3 1 2 4 3 3 4 4 3
4 5 4 3 3 3 4 3 4 4 4 5 5 3 2 3 4 4 3 3 2 0 -1 -0 1 1 2 3 3 3 2 3 4 3 4 4 4 4
4 4 4 4 3 2 3 3 3 4 4 5 6 3 3 4 5 5 5 4 3 1 0 0 1 2 2 3 3 4 3 4 4 3 4 5 5 4
4 5 4 3 2 1 2 2 3 4 5 6 6 4 3 5 6 4 5 4 3 2 3 2 2 3 3 2 4 4 3 4 4 4 4 5 5 5
5 5 4 3 3 1 1 1 2 4 6 6 6 4 4 5 6 4 4 5 5 3 4 4 3 5 4 5 4 3 3 4 4 4 5 5 5 5
5 5 5 4 3 3 1 1 1 1 3 5 5 3 4 5 5 4 4 4 5 3 4 5 4 5 5 5 4 3 3 4 5 4 5 5 5 6
5 5 4 4 4 3 2 2 2 2 2 3 4 3 2 4 4 2 3 3 3 3 4 6 5 6 6 6 5 3 3 4 5 5 5 5 6 6
5 4 4 5 3 2 3 4 3 3 2 1 2 2 1 3 3 2 3 4 5 4 4 5 5 6 7 8 5 3 3 4 5 5 5 5 6 6
6 5 4 4 3 3 3 4 4 3 3 3 3 3 2 2 2 1 3 4 4 5 4 5 5 5 8 8 6 5 5 5 5 5 6 6 6 9
7 6 6 4 4 3 3 3 3 2 3 3 3 2 2 2 2 1 2 3 4 5 3 4 5 6 7 9 7 6 6 7 7 7 6 7 7 7
7 6 6 5 3 3 3 2 2 2 2 3 3 3 3 3 2 2 2 2 2 3 3 4 5 5 7 8 8 6 7 8 8 9 9 7 7 6
7 6 5 4 4 3 3 3 3 2 2 3 3 3 2 2 2 2 2 2 4 2 3 3 4 5 6 7 7 7 8 8 8 9 9 9 9 9
6 6 5 5 5 5 4 4 3 2 3 3 3 3 2 2 3 2 4 5 4 4 4 4 4 5 6 6 6 7 8 9 8 8 9 9 9 8
6 6 7 7 8 7 6 6 5 2 3 3 3 3 3 3 3 3 4 5 5 6 6 5 6 5 5 6 7 6 8 8 8 9 9 10 9 8
6 7 8 8 8 8 8 8 6 3 2 3 3 3 3 3 4 4 5 5 6 6 6 6 6 6 6 7 6 7 8 8 8 9 9 10 10 9
7 8 8 9 9 9 9 8 8 6 2 2 3 3 3 4 5 4 5 5 6 6 6 6 6 6 8 10 10 9 8 8 9 10 9 10 10 10
7 8 8 9 9 9 9 9 8 6 3 3 3 3 4 5 5 5 5 5 6 6 7 6 5 5 7 9 10 11 10 7 9 9 9 10 9 7
8 8 8 9 9 9 9 9 8 7 4 3 3 3 4 4 5 5 6 6 5 6 7 6 5 5 7 8 9 12 10 10 8 8 10 10 11 11
8 8 8 9 9 9 10 9 8 7 4 4 4 4 4 4 5 5 6 6 5 5 6 5 6 7 7 8 10 12 12 11 10 10 10 9 10 12
8 8 8 9 9 9 9 9 8 8 6 3 4 4 4 5 4 5 6 5 6 6 6 7 7 6 7 8 10 11 11 10 10 11 11 10 9 9

GFSNE_con_lsi_003.txt.gz
Lid_Strength_Index
4 4 4 4 3 3 3 3 4 7 7 7 6 5 3 3 -0 -0 0 -0 -1 -0 -0 -0 -1 -1 -1 -2 -2 -1 -0 1 1 2 2 2 3 3
4 4 5 4 4 3 3 4 3 5 10 6 6 5 4 2 -0 -0 0 0 -0 -0 -0 0 -0 -1 -1 -1 -1 -0 0 1 2 2 2 3 3 3
5 5 5 4 4 4 3 3 3 4 8 6 4 5 4 4 0 0 0 0 -0 -0 -0 0 -0 -0 -1 -0 0 0 1 2 2 2 2 3 3 3
5 5 5 4 4 4 4 4 3 5 6 6 5 4 3 3 1 1 1 0 0 -0 -0 -0 -0 0 1 1 1 2 2 3 2 2 2 3 4 4
6 6 5 5 5 5 4 3 2 4 4 6 6 5 3 3 1 2 1 1 1 -0 0 0 0 1 1 2 2 3 3 3 3 2 3 4 4 4
5 5 5 4 5 5 3 3 3 3 3 4 6 5 4 3 2 2 3 2 3 0 1 1 0 1 1 2 2 4 4 4 3 3 4 5 4 4
5 5 4 4 2 2 2 3 2 4 4 5 5 5 5 5 4 2 3 4 4 1 2 2 2 2 2 2 3 4 5 3 3 4 4 5 5 5
6 6 5 4 3 1 2 1 1 3 4 5 5 5 5 3 3 3 4 6 6 2 3 3 3 4 4 4 3 4 5 4 3 4 4 5 5 5
6 6 6 5 4 4 3 2 2 1 2 3 5 5 5 3 3 3 4 5 5 3 4 5 4 4 4 4 4 4 5 4 3 4 5 5 5 6
6 6 6 5 6 4 3 3 3 2 1 2 3 4 5 2 2 3 3 5 4 4 4 7 5 6 5 6 4 4 5 4 4 4 5 5 5 6
6 5 6 6 4 3 4 4 3 3 2 1 2 2 3 2 2 3 4 5 5 6 6 6 6 7 7 8 5 5 6 4 4 4 5 5 6 6
5 5 5 5 4 3 4 4 4 3 2 2 3 3 2 3 1 2 3 5 5 7 6 7 6 7 8 8 7 6 6 4 5 5 5 6 6 9
6 7 6 5 4 3 2 3 2 1 2 2 3 4 3 3 3 2 3 3 5 7 5 6 6 7 8 8 7 7 8 6 7 6 6 7 7 8
7 7 6 5 4 3 4 3 2 2 2 2 3 4 4 2 2 2 3 2 3 4 4 5 5 6 8 8 8 8 10 8 7 9 9 7 6 6
6 6 5 4 4 4 4 4 2 2 2 3 4 4 3 1 3 3 2 1 4 4 4 4 4 6 6 7 8 9 9 9 8 8 10 10 10 9
6 7 5 5 5 6 6 6 5 4 2 3 4 3 2 2 2 2 2 3 5 5 5 4 4 5 7 6 7 9 8 9 8 9 10 10 9 9
6 6 6 7 8 8 8 8 6 5 3 2 3 3 3 3 2 3 2 3 5 6 6 6 5 6 6 6 8 7 8 9 8 9 10 11 10 9
7 7 8 8 8 9 9 8 8 6 4 2 2 3 3 3 3 4 2 3 6 6 6 6 6 7 7 7 6 7 9 9 8 8 9 11 11 10
8 8 8 8 9 9 9 9 9 7 5 2 3 3 3 3 3 5 4 4 6 6 6 6 6 7 8 10 10 8 8 8 8 9 9 10 11 10
9 9 8 8 9 10 9 9 9 7 5 2 3 2 2 3 4 5 5 5 6 6 7 6 6 6 7 8 9 10 9 8 8 9 10 11 9 8
9 9 8 8 9 9 9 9 9 8 6 4 3 3 3 3 5 5 5 5 6 7 7 7 6 6 8 7 9 11 11 10 8 8 10 11 11 10
9 9 8 8 9 9 9 9 9 8 6 4 3 2 3 4 5 5 6 6 6 7 6 6 7 7 7 7 10 12 11 11 9 9 9 9 10 11
9 9 8 8 9 9 9 9 9 8 7 7 2 2 3 4 5 5 6 5 6 6 6 8 7 7 8 8 10 11 11 11 9 10 10 9 9 9

GFSNE_con_lsi_009.txt.gz
Lid_Strength_Index
11 10 10 9 8 7 6 6 7 9 8 6 6 3 3 3 2 2 4 3 3 3 3 -0 -0 -1 -1 -1 -1 -1 -1 -1 -2 -1 1 1 1 2
10 10 10 8 7 7 6 5 5 7 8 6 5 4 3 2 2 2 3 4 3 4 3 0 -0 -0 -0 -0 -1 -1 -1 -1 -1 0 1 1 2 2
10 10 9 7 8 7 6 6 6 6 7 6 5 4 3 3 3 3 4 4 4 3 2 1 1 0 -0 -0 -0 -0 -1 -1 -1 1 1 1 2 2
10 10 9 7 8 7 6 6 6 5 6 7 6 5 4 3 3 4 3 3 2 3 -1 -0 1 0 0 0 1 1 0 0 1 1 1 2 2 3
10 9 8 7 8 7 6 6 5 4 4 5 5 3 2 2 3 4 4 4 3 2 -0 0 0 0 1 1 2 2 2 2 2 2 1 2 3 3
9 8 7 7 7 6 6 5 5 5 5 5 5 3 3 2 3 6 6 4 4 0 -0 0 0 0 1 1 2 2 3 3 2 3 2 3 3 3
8 7 6 5 3 3 4 5 5 5 5 5 4 3 3 3 4 4 5 5 3 1 1 1 1 1 1 1 2 3 3 3 3 3 3 4 4 4
8 7 7 5 5 2 3 3 4 5 5 5 4 4 4 4 5 5 5 6 5 1 2 2 1 1 1 2 2 3 3 3 3 4 4 4 4 4
9 8 7 6 5 5 4 3 4 2 2 3 3 3 4 3 4 5 5 6 4 2 2 3 1 2 2 3 3 3 3 4 4 4 4 4 5 5
9 8 7 7 6 5 6 5 5 4 4 3 2 2 3 1 3 3 4 5 2 1 1 4 2 4 4 4 3 4 4 4 5 5 4 4 5 5
8 7 7 6 3 3 5 5 5 5 3 2 1 0 0 1 2 2 4 4 4 3 2 3 5 5 5 5 4 4 5 5 5 5 4 5 5 5
7 7 5 5 2 4 5 5 7 6 5 4 3 1 0 1 1 2 2 4 4 4 3 5 5 6 9 7 5 6 6 5 6 6 4 5 6 9
7 7 6 3 3 4 3 5 5 4 5 5 4 2 1 1 1 2 2 2 3 5 3 4 4 7 8 8 6 9 8 7 8 7 5 6 6 8
7 6 5 3 3 4 4 3 3 4 6 6 6 3 2 2 2 2 2 1 2 3 3 3 4 6 8 7 8 9 10 10 9 9 9 7 6 7
5 5 4 4 4 5 4 4 4 6 6 7 6 6 2 1 1 1 1 1 3 3 3 3 3 7 7 6 8 8 10 11 11 10 10 9 9 9
5 7 5 5 5 5 5 5 6 6 6 7 7 6 2 2 2 1 2 3 4 4 4 5 4 6 9 7 7 9 11 11 11 11 10 10 10 9
6 7 8 8 8 8 6 7 7 7 7 7 7 5 2 2 2 1 2 3 4 5 6 7 6 9 7 6 9 8 10 11 10 11 11 11 11 10
8 9 9 9 9 8 8 8 8 7 7 7 7 5 3 3 3 2 2 4 5 5 6 8 7 9 7 8 6 8 9 11 10 11 11 11 12 11
10 10 10 9 9 8 8 8 9 8 7 8 7 6 2 2 3 3 3 4 5 6 6 8 7 8 8 9 9 7 8 10 10 11 10 10 11 11
10 10 10 9 9 8 8 8 9 9 9 8 7 6 2 3 3 3 3 4 5 6 7 7 7 7 7 8 9 10 8 9 10 11 11 10 9 8
10 10 10 9 9 8 7 8 8 9 8 8 7 7 4 3 3 3 3 4 5 6 7 8 6 5 8 8 9 11 10 10 9 9 9 10 9 10
10 10 10 9 9 8 7 8 9 10 9 9 8 8 8 2 3 3 3 5 5 6 7 6 8 7 8 8 10 11 11 11 9 8 8 9 9 11
8 7 9 9 9 8 8 8 9 9 10 10 9 9 8 3 2 2 4 4 6 6 7 8 9 8 9 9 9 10 11 10 9 10 10 9 8 8

GFSNE_con_lsi_012.txt.gz
Lid_Strength_Index
13 13 13 12 11 10 10 10 10 11 10 7 7 5 4 3 2 3 2 1 1 2 4 4 4 3 -1 -1 -1 -1 -1 -2 -2 -2 -2 -0 0 1
13 13 12 11 11 10 9 8 8 9 10 7 6 5 4 3 3 3 2 1 1 0 4 3 4 3 -0 -0 -0 -1 -1 -1 -1 -2 -1 0 0 1
13 12 11 11 11 10 9 8 8 8 8 7 6 4 4 4 4 3 2 3 3 3 4 3 4 3 -0 0 -0 -0 -0 -1 -1 -1 -0 1 1 2
12 12 11 10 10 10 8 8 8 7 7 7 6 5 4 4 4 3 3 2 2 3 3 3 3 2 1 0 1 0 0 -0 -1 -0 1 1 1 2
12 12 11 10 10 9 8 8 7 6 6 6 6 5 5 4 3 2 3 3 2 4 3 3 3 1 1 0 1 1 1 1 1 1 1 1 1 2
11 10 10 10 10 9 7 7 6 6 5 6 6 5 5 3 2 3 3 3 4 4 3 3 1 1 1 1 2 2 3 2 2 2 2 1 2 2
10 9 9 8 5 5 6 6 6 6 6 6 6 6 5 4 3 2 3 3 3 3 4 3 0 1 0 1 2 3 3 3 2 2 3 2 2 3
11 10 10 8 7 4 3 3 3 5 6 6 5 5 5 4 2 3 3 4 6 3 5 2 0 1 1 1 2 3 3 3 3 3 3 3 3 3
11 11 10 8 7 8 5 3 3 3 3 4 5 5 3 3 2 3 3 5 5 3 2 3 1 2 1 2 3 3 3 3 4 4 4 3 3 4
11 11 11 10 8 7 6 5 5 4 4 4 4 3 3 1 1 2 4 4 4 4 1 4 2 4 3 3 4 3 3 4 5 5 4 4 4 4
10 10 10 8 6 5 5 5 5 5 3 2 2 2 1 0 1 3 4 4 5 3 1 3 4 5 4 4 4 4 4 5 5 5 4 4 4 4
10 9 6 6 5 4 5 6 6 6 5 5 5 4 1 0 1 3 3 4 4 4 3 5 5 5 7 5 4 4 5 5 5 5 5 4 4 6
10 9 7 5 4 3 4 6 5 4 5 6 6 5 2 1 1 2 2 2 3 4 3 3 5 5 7 6 7 6 6 6 7 6 6 5 5 7
10 8 7 5 4 4 4 4 3 4 6 7 6 6 4 2 2 2 1 1 2 3 2 3 5 5 6 6 9 9 9 8 7 8 8 5 5 6
8 7 5 5 4 5 5 4 4 6 7 8 7 6 5 5 2 2 2 1 2 3 3 2 5 5 4 5 8 9 9 10 9 9 9 8 8 8
7 9 7 6 5 6 6 6 5 6 7 7 7 6 5 4 2 2 2 3 4 5 3 3 4 4 6 6 6 9 10 11 10 10 10 9 8 8
7 9 10 10 9 9 8 7 6 6 7 7 8 7 6 4 2 1 2 3 5 6 6 5 6 6 6 5 7 8 10 10 9 10 11 10 9 8
9 11 11 11 10 10 9 8 7 7 7 7 7 7 6 4 3 2 2 3 5 6 7 6 7 7 7 7 5 8 9 9 9 10 10 11 9 9
12 11 11 11 10 10 9 8 8 7 7 7 8 7 6 4 3 3 3 4 5 6 6 6 7 7 7 9 9 8 9 10 10 11 10 11 9 9
12 11 11 11 10 10 9 8 8 8 8 8 8 8 7 5 3 3 3 4 5 6 6 6 6 7 6 7 9 9 9 10 10 10 11 10 8 7
12 11 11 11 10 10 8 8 7 8 8 8 8 8 8 7 3 3 3 4 5 5 6 6 6 6 7 7 9 10 10 10 9 10 10 11 9 9
11 11 11 10 9 9 8 8 8 8 9 9 9 8 8 7 4 3 3 4 4 5 5 5 7 8 8 8 9 10 11 10 9 9 9 9 9 10
10 9 9 8 9 9 8 8 8 8 9 9 9 9 8 8 7 2 3 4 4 5 6 7 7 8 9 8 9 10 11 10 10 10 10 9 8 8

GFSNE_con_lsi_015.txt.gz
Lid_Strength_Index
9 9 9 9 9 9 9 9 10 11 10 7 7 4 3 3 2 2 2 1 0 0 -0 -0 0 1 3 3 2 -1 -1 -1 -2 -2 -2 -2 -1 -1
9 9 9 9 9 8 8 8 8 9 10 7 5 4 3 3 2 2 2 1 0 0 -0 1 1 2 2 3 3 -1 -1 -1 -1 -1 -2 -1 -1 -1
9 10 10 9 9 8 8 7 7 7 9 6 5 3 3 3 3 2 2 2 1 1 -0 1 1 2 3 3 3 -0 -0 -1 -1 -1 -2 -1 -0 -0
10 10 10 9 8 8 7 7 7 7 6 7 5 4 4 4 2 3 3 2 2 1 0 1 2 4 3 4 2 0 0 -0 -1 -1 -1 -0 -0 0
10 10 9 8 8 7 7 7 7 6 5 5 5 4 3 3 4 3 3 3 1 1 1 1 3 3 3 3 1 1 0 0 0 0 0 0 -0 0
9 9 9 8 8 7 7 7 7 5 5 4 4 4 5 5 4 5 5 2 2 2 1 2 3 3 3 3 1 1 2 2 1 1 2 1 0 1
9 9 8 7 6 6 7 7 6 6 6 5 5 6 6 5 5 4 3 2 1 2 2 4 4 4 4 1 1 2 2 2 2 2 2 2 1 1
9 8 8 7 7 6 6 6 5 7 6 5 6 7 5 5 5 3 2 3 5 1 4 4 4 5 3 -0 1 3 3 2 2 3 3 3 2 2
9 9 9 8 7 7 6 5 5 3 3 4 6 5 6 5 4 4 3 3 3 2 3 5 5 5 0 1 3 3 3 3 3 4 4 3 2 2
9 9 8 8 7 7 7 6 5 4 4 4 4 4 3 3 3 2 2 2 2 2 3 6 3 2 1 2 4 4 4 4 4 4 4 3 3 3
9 9 8 7 6 6 7 6 5 4 3 3 2 3 3 2 0 1 2 3 5 3 3 3 3 3 3 4 4 4 4 4 4 4 4 4 3 3
9 8 7 6 6 5 6 5 5 5 5 4 5 5 4 2 0 0 1 5 5 3 2 4 3 4 7 4 4 4 3 5 5 5 5 4 4 3
9 9 7 6 5 5 5 4 5 4 5 6 6 5 4 2 1 0 0 2 3 4 2 2 3 5 6 7 6 4 4 5 5 6 6 5 5 4
9 8 6 6 5 6 5 4 3 4 5 6 6 6 5 4 3 1 1 1 0 1 2 1 3 4 5 7 9 5 4 5 6 6 6 5 5 5
7 7 6 6 6 6 6 4 4 5 6 7 7 7 5 4 3 1 1 0 0 1 0 1 2 3 4 7 8 7 7 6 6 7 6 5 5 5
7 7 6 6 7 7 6 5 5 5 6 7 7 6 5 5 4 2 2 2 3 3 2 2 2 3 6 6 6 6 7 8 7 7 7 6 5 5
7 6 7 8 8 7 7 6 5 5 7 7 7 6 6 6 5 2 2 2 5 6 5 4 3 3 4 5 6 6 7 7 7 7 7 8 6 5
7 8 8 9 9 8 7 7 6 6 6 7 7 7 7 7 6 2 3 3 5 6 6 5 5 6 6 6 4 6 6 7 7 7 7 8 7 5
8 9 9 9 8 8 7 7 7 6 6 7 7 7 6 7 6 3 3 4 5 6 6 5 5 6 7 8 5 7 6 7 7 8 8 8 7 6
9 9 9 9 8 8 7 7 7 6 6 7 7 7 7 7 7 4 3 4 5 6 6 5 5 4 4 5 6 4 9 6 7 8 9 8 7 6
9 9 9 8 8 7 7 6 6 6 6 7 7 7 7 7 7 6 3 5 5 5 6 5 4 4 5 6 7 6 7 9 7 8 8 8 8 7
9 9 9 8 7 7 7 6 6 6 7 7 8 8 7 7 7 7 3 5 4 4 5 5 6 6 4 5 6 7 8 8 9 9 9 9 8 8
9 9 9 7 7 6 6 6 6 7 7 8 8 8 8 8 7 7 3 3 4 3 5 6 6 5 5 6 7 7 7 8 9 9 8 10 9 8

GFSNE_con_lsi_018.txt.gz
Lid_Strength_Index
7 7 8 8 8 8 8 9 10 12 11 8 7 5 5 5 4 4 3 1 0 0 -0 -1 -1 -1 -2 -1 -0 1 3 3 1 -1 -2 -2 -2 -1
8 8 8 8 8 8 8 8 8 9 10 8 7 6 5 5 3 2 2 0 0 -0 -0 -0 -0 -1 -1 -1 0 2 3 3 1 -1 -1 -1 -2 -1
8 8 8 8 9 8 8 8 8 8 9 7 6 6 6 4 3 2 1 1 1 0 0 -0 -0 -1 -1 -1 1 3 4 3 2 -1 -1 -1 -2 -1
8 8 9 9 9 8 8 7 7 7 7 8 7 6 5 3 2 2 2 2 2 1 0 0 0 -0 -0 1 1 4 3 4 3 -1 -1 -1 -1 -1
8 9 9 9 9 8 8 8 7 7 7 7 7 6 5 3 1 2 3 3 2 1 1 0 0 -0 1 1 2 5 4 4 2 0 -0 -1 -1 -0
9 9 9 8 8 8 8 7 7 7 7 6 6 6 4 2 3 5 5 4 3 2 1 0 -0 1 2 4 4 4 5 4 0 1 1 1 0 0
9 9 8 8 7 7 8 7 7 8 8 7 6 5 4 4 5 5 5 4 3 1 1 1 1 2 4 4 4 4 5 1 1 1 1 2 2 1
9 8 8 8 8 7 7 6 6 8 7 6 5 5 4 5 5 5 5 5 6 0 1 3 2 4 5 4 3 3 3 2 2 2 2 2 2 1
8 9 9 9 8 8 7 6 6 6 5 4 5 5 6 5 5 5 5 5 5 1 1 4 3 5 4 4 4 2 3 3 3 3 3 3 2 2
8 8 9 9 8 8 7 7 7 6 5 4 4 5 5 4 4 4 4 3 2 1 2 6 5 6 4 4 3 3 3 3 3 4 3 3 3 2
8 8 9 9 8 7 7 7 7 6 4 2 2 2 3 3 3 3 3 3 4 3 2 4 5 6 5 3 3 4 4 4 4 4 4 3 3 3
9 9 9 8 7 7 6 7 7 6 4 4 3 3 4 4 3 0 1 3 4 5 3 5 4 3 5 3 3 4 4 4 5 5 4 4 4 3
9 9 9 8 7 6 6 7 7 5 4 4 5 5 5 5 4 2 -0 2 4 4 2 3 3 4 5 6 4 4 4 5 5 5 5 4 4 3
9 9 8 8 7 6 6 6 5 5 4 5 5 7 7 5 4 1 0 0 1 3 1 2 4 5 7 6 6 5 4 4 5 5 5 4 5 4
9 8 8 7 6 6 7 7 5 5 5 6 6 7 6 5 3 2 0 0 0 1 1 2 3 4 5 6 6 6 6 6 5 6 5 4 4 4
9 8 8 7 6 7 7 7 6 6 5 6 7 6 5 4 4 2 2 2 2 2 1 2 3 4 6 6 6 6 6 7 6 6 5 4 4 4
9 9 9 8 7 7 7 7 6 6 5 6 6 6 6 5 5 4 2 2 4 4 3 3 4 4 5 5 6 6 6 6 6 6 5 6 5 4
9 10 9 8 8 8 8 8 7 6 5 6 7 6 6 7 6 5 2 3 5 4 5 4 5 5 6 5 5 5 6 6 6 5 6 7 6 5
10 10 9 8 8 8 8 8 7 6 5 6 7 7 6 6 6 6 3 3 4 5 4 4 4 5 6 8 5 7 5 5 6 6 6 6 6 5
10 10 9 8 8 9 8 8 7 6 5 6 7 7 7 7 7 6 4 4 5 5 5 3 3 3 4 6 5 5 8 5 6 6 6 7 6 6
10 9 8 8 8 8 8 7 7 6 5 6 7 8 8 8 8 7 7 4 5 5 6 4 4 4 5 4 6 5 5 9 6 6 7 7 7 6
9 8 8 7 8 8 7 7 6 6 5 6 7 7 7 8 8 8 7 3 4 4 4 5 5 4 5 5 6 6 6 6 9 9 9 9 7 7
9 8 8 8 7 7 7 6 6 6 5 6 7 7 7 8 8 8 8 5 3 3 4 6 5 5 5 4 6 5 6 7 7 8 8 10 9 8

GFSNE_con_lsi_024.txt.gz
Lid_Strength_Index
8 9 9 9 9 10 10 11 13 15 14 13 12 10 10 9 8 8 8 5 3 2 2 2 3 3 3 2 1 1 0 -0 -1 -1 -1 -1 -1 -1
8 9 9 9 10 10 10 11 11 13 14 12 11 10 9 8 8 7 8 3 3 3 3 2 2 2 2 1 -1 -2 -2 -1 -1 -1 -0 -2 -1 1
9 9 9 9 10 10 10 11 11 11 13 11 10 10 10 10 9 8 7 8 7 3 3 1 0 -0 -0 -2 -2 -1 -2 -2 -2 -1 -1 -1 -0 0
9 9 10 8 10 11 11 11 11 11 11 12 11 11 11 10 9 9 7 6 7 3 1 1 0 -0 -1 -1 -1 -1 -2 -2 -1 -1 -2 -1 1 0
9 9 10 10 11 11 11 11 10 9 11 12 11 11 11 10 9 9 8 7 6 2 1 1 1 1 -0 -1 -1 -1 -1 -1 -2 -1 -1 0 1 1
9 9 10 10 11 11 11 11 10 11 11 12 12 11 10 9 9 9 8 6 5 3 2 2 2 1 1 -1 -1 -1 -1 -1 -1 -1 -1 -0 0 2
10 10 10 9 7 8 9 10 11 11 12 12 12 11 10 10 10 9 8 6 5 5 5 5 4 4 3 1 -0 -0 -1 -1 -1 -1 -1 1 3 3
11 10 10 7 8 6 6 6 8 11 12 12 10 10 9 9 8 7 6 6 8 4 5 5 4 4 3 2 1 -0 -0 -1 -1 -1 0 3 4 3
11 10 10 9 7 10 8 7 7 7 7 10 10 10 9 9 8 6 6 6 6 4 4 5 3 3 2 2 0 -0 -0 -1 -0 1 2 4 4 2
10 10 10 10 10 10 10 11 10 10 10 9 8 8 8 7 5 4 5 5 4 3 3 5 3 4 2 1 0 0 -0 -0 1 4 4 3 3 2
10 10 10 10 8 8 10 11 11 10 7 6 5 5 4 3 3 4 5 7 7 6 2 3 3 3 2 2 1 0 0 1 4 4 3 3 2 2
10 10 6 9 7 8 10 11 12 11 11 9 8 7 5 4 3 4 6 7 7 5 2 3 3 3 4 2 2 2 3 4 4 4 4 3 4 4
11 11 10 6 7 7 8 10 10 9 9 9 9 8 6 6 4 5 5 6 6 4 2 2 3 3 3 5 5 5 5 5 4 4 3 4 5 4
11 11 9 6 7 8 8 7 7 8 9 10 9 8 7 7 6 5 6 5 4 4 2 3 4 5 4 4 6 4 4 4 4 4 4 4 4 4
10 8 7 7 8 8 8 8 8 10 10 11 9 8 7 6 6 6 6 5 3 2 2 3 3 4 4 6 6 6 6 5 4 5 5 5 5 5
8 9 9 8 8 9 9 9 10 10 10 10 8 8 7 7 7 6 7 6 4 4 4 3 4 4 5 5 6 7 7 8 6 6 6 6 5 4
10 10 11 11 11 11 11 11 10 10 10 10 8 8 8 7 8 7 7 5 5 5 5 5 5 5 5 6 8 8 7 7 6 6 6 6 6 5
10 12 12 12 12 12 13 12 11 10 10 10 8 9 8 7 8 8 7 6 5 5 6 6 7 7 7 7 6 8 7 7 6 6 6 7 8 7
12 12 12 12 12 13 13 13 11 10 10 9 8 9 8 7 9 8 8 8 5 5 5 5 6 7 8 10 7 8 7 7 6 7 7 8 8 7
12 12 12 12 13 13 13 12 11 11 10 8 8 8 8 8 9 9 9 9 6 5 6 6 6 7 8 9 9 8 8 7 7 7 8 8 7 6
12 12 12 12 12 12 12 11 10 9 9 8 8 8 8 8 9 10 9 9 8 5 6 5 4 5 6 6 8 8 8 9 7 7 7 7 9 8
12 12 12 11 12 12 10 10 10 9 10 9 8 8 8 8 8 10 10 10 9 8 6 4 4 5 6 7 8 8 10 9 9 9 9 8 8 9
12 12 11 11 11 12 10 10 10 10 10 10 8 9 8 8 8 9 10 10 9 9 6 5 5 5 6 7 8 8 9 9 9 9 10 9 8 7

GFSNE_con_lsi_027.txt.gz
Lid_Strength_Index
9 10 10 10 10 10 10 11 12 15 15 13 13 11 10 10 8 8 9 6 4 4 4 4 4 4 3 3 3 3 2 2 1 1 0 0 -0 -1
9 9 10 10 10 10 10 11 12 13 14 13 12 11 10 8 8 8 9 6 6 5 4 3 3 4 3 3 3 3 2 1 1 1 0 -0 -0 -1
9 9 9 10 10 10 11 11 11 12 14 12 11 10 11 11 10 10 9 10 9 5 4 3 3 3 3 3 3 2 1 -0 -1 -1 -1 -2 -2 -1
9 9 9 8 10 11 11 11 11 12 12 13 12 11 11 11 11 11 10 9 9 6 4 4 3 2 1 1 0 0 -0 -1 -2 -2 -2 -2 -2 -0
9 9 9 10 11 11 11 11 12 10 11 12 12 12 12 11 11 11 11 9 8 5 4 3 2 1 0 0 0 0 0 -1 -1 -2 -2 -2 -2 -0
8 9 9 10 11 11 11 12 11 12 12 12 12 12 12 11 12 11 11 9 9 7 5 4 3 1 1 0 1 1 0 -1 -1 -1 -1 -1 -1 -1
9 8 9 9 6 9 10 11 11 12 12 12 12 12 12 12 13 11 10 9 8 7 6 5 4 4 3 2 2 1 0 -1 -1 -1 -1 -1 -1 1
10 10 9 6 6 5 6 6 9 11 12 13 12 12 12 12 11 10 10 9 10 5 5 5 4 4 4 4 2 2 0 -1 -1 -1 -1 -1 -1 1
10 10 10 8 7 10 6 6 6 7 7 11 12 12 12 11 10 10 9 8 7 4 4 6 4 4 3 3 2 1 -0 -1 -1 -1 -1 -1 -1 1
10 11 11 11 9 10 11 11 11 11 10 9 10 11 11 9 8 7 6 6 5 5 4 7 4 4 2 3 1 1 -0 -0 -0 -1 -1 -1 1 3
11 11 11 11 7 6 10 11 11 11 8 7 7 7 5 5 5 6 7 7 8 7 5 6 5 3 3 3 3 1 0 -0 -1 -1 -1 0 3 4
11 10 7 10 6 7 11 12 12 12 11 11 11 9 7 7 5 6 7 8 8 8 5 6 4 3 4 2 2 2 1 0 0 0 1 2 3 2
11 10 9 6 6 7 8 11 11 10 10 11 11 10 9 7 6 7 7 7 8 8 5 3 4 3 3 3 2 2 1 1 2 2 3 3 3 3
11 11 10 5 6 7 8 7 7 8 11 12 11 10 9 8 8 7 7 6 5 4 3 2 3 3 3 4 4 2 2 2 3 5 4 3 4 4
10 9 6 5 6 7 7 7 8 11 12 12 12 10 8 8 8 8 7 6 4 2 2 2 2 3 3 4 4 4 5 5 5 4 4 4 4 4
6 7 7 8 8 9 9 9 11 12 12 11 11 10 8 9 9 8 8 6 4 4 2 1 1 2 4 5 5 6 6 6 4 4 5 5 5 5
9 10 11 11 11 12 11 12 12 12 11 11 11 10 9 9 9 8 8 6 5 5 5 4 3 4 4 5 6 6 6 5 5 6 5 6 6 6
10 11 11 12 12 13 13 13 13 11 11 11 10 10 9 10 10 9 8 8 6 5 6 6 6 7 7 7 6 6 6 7 6 6 6 7 8 7
11 11 12 12 13 13 13 13 14 12 11 11 8 10 9 10 9 9 9 8 6 6 6 5 6 7 9 10 6 7 7 7 6 7 6 8 8 8
11 12 12 12 13 13 13 13 13 11 9 10 8 10 9 9 10 10 10 10 7 6 6 6 6 7 8 9 9 9 7 6 6 7 8 7 7 6
12 12 12 12 13 13 13 13 12 10 9 10 9 10 9 9 10 10 10 10 8 7 7 6 6 6 6 6 8 9 9 9 7 7 7 7 9 9
12 12 12 12 12 13 13 12 11 10 11 10 10 10 9 9 10 11 10 10 10 9 5 6 6 6 7 7 9 9 10 9 8 8 8 8 8 9
12 12 12 12 12 13 13 12 10 10 11 11 10 10 10 9 11 11 10 10 10 9 6 6 6 6 7 7 8 9 9 8 8 9 9 8 8 7

GFSNE_con_lsi_030.txt.gz
Lid_Strength_Index
8 9 9 10 10 11 11 11 12 15 15 13 13 12 11 10 8 8 8 6 4 4 4 4 4 4 4 4 4 4 3 3 3 2 1 1 0 -0
7 9 10 10 10 11 11 11 12 13 14 13 12 11 11 9 8 7 8 5 5 5 5 4 5 4 4 4 4 4 4 3 3 2 1 1 1 0
7 9 10 10 10 11 11 11 12 12 13 13 12 11 11 11 10 10 9 10 10 6 5 5 4 5 5 4 4 3 3 3 2 2 2 2 1 1
8 8 9 9 10 11 11 11 12 12 12 13 12 12 11 11 11 11 10 9 10 7 6 5 5 4 3 3 2 2 2 2 2 2 1 1 0 0
8 8 9 9 10 11 11 12 12 10 12 12 13 12 12 11 11 11 11 11 9 7 6 5 5 4 3 2 2 2 2 2 1 0 -0 -1 -1 -2
7 8 9 9 9 11 11 11 11 12 12 12 12 12 12 12 12 12 12 12 11 9 8 6 5 4 3 3 1 1 1 0 0 -1 -0 -0 -0 -2
8 8 9 8 6 8 10 11 11 12 12 12 13 13 13 13 13 12 13 12 11 10 9 8 8 7 5 3 2 1 0 0 -0 -0 -0 0 -1 -1
9 9 8 5 5 4 5 6 9 11 12 12 12 13 13 12 12 13 12 12 12 8 8 8 6 6 5 4 2 2 1 1 0 0 -0 -1 -1 -1
8 9 9 7 6 8 4 5 5 5 6 11 12 13 13 12 12 12 12 11 10 8 7 8 5 5 4 3 2 2 1 1 1 0 -0 -1 -1 -1
8 9 9 10 8 9 10 10 11 10 10 9 11 11 11 11 12 10 9 8 6 6 6 8 6 6 5 4 2 1 1 1 1 0 -1 -1 -1 -1
9 10 10 10 6 6 11 11 12 11 8 7 6 6 6 7 7 8 8 9 9 8 7 8 7 7 5 4 3 1 2 2 0 -1 -1 -1 0 2
10 10 7 9 5 5 11 12 12 12 11 11 10 10 9 10 6 7 8 9 9 9 7 8 7 6 7 3 2 3 2 1 0 -0 -0 -0 1 3
11 10 8 5 5 5 8 11 11 11 10 11 12 12 11 10 9 7 7 8 9 9 7 6 6 6 4 4 3 3 2 1 0 0 0 1 2 4
10 9 8 5 5 5 7 7 7 8 11 13 13 13 11 10 8 8 8 7 7 7 6 5 6 5 4 4 5 3 2 1 1 2 2 2 4 4
9 8 6 5 5 6 7 7 8 11 13 13 14 12 10 9 8 8 7 7 5 2 3 4 3 3 2 4 5 4 3 2 2 3 3 4 4 4
7 8 6 7 7 8 9 10 11 12 13 14 13 12 9 9 9 8 9 7 5 4 1 1 1 1 3 3 4 4 3 4 3 2 4 4 4 4
8 9 10 11 11 12 12 12 12 13 13 13 12 10 10 9 9 8 9 8 5 3 3 2 1 2 3 3 4 3 3 3 3 5 5 7 6 5
9 11 12 12 13 13 13 13 13 13 14 12 10 10 10 10 10 9 9 8 5 3 3 2 2 3 2 2 2 3 3 4 5 5 6 7 7 7
11 11 12 12 13 13 14 14 14 14 12 11 9 11 10 9 10 10 10 8 6 5 5 5 5 6 8 9 7 6 6 6 6 6 6 7 7 7
11 11 12 13 13 14 13 14 14 13 11 10 9 11 10 9 10 10 10 10 8 6 7 7 7 7 7 8 8 8 8 6 6 7 8 8 7 6
11 11 12 12 13 13 13 13 13 12 10 11 10 11 10 9 10 10 11 10 9 7 8 8 7 6 6 6 8 9 9 9 7 7 7 7 9 9
11 12 12 12 13 13 13 13 13 11 11 11 11 11 10 9 10 11 11 11 10 8 8 7 6 6 7 8 9 9 9 9 8 8 7 8 8 9
12 12 12 12 12 13 13 13 12 11 11 11 11 11 11 10 10 10 11 10 10 9 7 7 7 7 8 8 8 9 9 8 9 9 8 8 8 7

GFSNE_con_lsi_033.txt.gz
Lid_Strength_Index
6 8 8 9 10 10 11 12 12 14 14 13 13 12 11 10 9 8 9 6 4 4 4 4 4 3 3 3 3 3 3 3 3 3 2 2 2 1
6 8 9 10 9 10 11 12 12 12 14 13 13 12 11 9 8 8 8 5 4 4 4 3 4 4 4 4 4 3 3 3 3 3 3 3 2 2
7 8 9 9 9 9 11 12 12 12 13 13 13 12 12 11 10 9 9 10 10 5 5 5 4 4 4 4 4 4 4 4 3 3 3 3 2 2
6 8 8 8 9 9 10 11 11 12 12 13 13 12 12 11 11 11 10 8 10 7 5 5 5 5 5 4 4 4 4 4 3 3 3 3 2 1
6 7 7 9 9 10 10 11 11 10 12 13 13 12 12 11 11 11 11 11 10 7 5 5 5 5 4 4 4 4 4 3 3 3 3 3 2 1
4 6 6 8 8 10 10 10 11 12 12 13 13 12 12 11 12 12 12 11 11 9 7 6 6 5 5 5 4 3 3 2 2 2 2 2 2 1
4 5 7 6 4 7 9 10 11 12 13 13 13 12 12 12 13 12 13 11 11 11 10 10 10 9 8 6 4 3 3 2 2 1 1 0 -0 -0
4 5 6 4 4 4 5 6 9 11 12 12 12 12 12 12 12 12 12 13 13 11 11 11 10 9 8 7 5 4 3 2 2 1 0 0 -1 -0
3 6 7 6 4 6 4 4 5 5 7 10 12 12 12 12 12 13 13 12 12 11 10 10 8 8 6 6 5 4 3 2 2 1 1 0 -0 -0
4 6 7 7 6 7 7 8 9 8 7 7 10 11 11 11 11 10 11 11 10 8 7 9 7 7 6 5 4 4 3 3 2 2 1 0 0 -0
5 6 7 7 5 4 9 10 11 10 6 6 6 6 6 6 6 9 11 11 11 9 7 8 8 8 7 6 5 4 3 3 2 1 0 0 0 -0
5 6 4 6 3 4 10 11 12 12 11 11 10 9 8 10 7 9 10 11 10 10 8 9 8 8 8 6 5 5 3 2 2 1 1 0 0 1
8 8 7 4 3 5 8 11 11 11 10 11 11 12 12 12 11 10 9 9 10 10 8 7 7 7 7 7 5 3 3 2 2 2 1 0 1 2
8 8 7 4 4 6 8 6 6 7 11 12 13 13 13 12 10 8 8 8 8 9 7 7 7 6 6 6 6 3 3 2 2 1 1 0 2 3
8 7 4 4 4 6 6 6 7 11 13 13 14 14 13 10 9 8 8 7 6 5 4 3 5 4 4 4 5 4 4 2 1 2 1 2 3 3
6 5 5 6 6 6 8 9 11 12 13 14 14 14 11 10 9 8 9 8 5 4 2 3 3 4 4 4 4 4 3 3 2 2 3 3 3 3
7 8 9 9 10 11 12 12 13 13 14 14 14 12 11 9 9 9 8 6 3 4 3 2 2 2 3 3 4 3 3 3 2 3 4 5 5 4
9 10 10 11 12 13 13 14 13 13 14 14 11 11 11 9 10 9 8 5 3 3 3 2 3 4 3 3 2 3 3 3 2 4 5 7 8 6
10 10 11 12 13 13 14 14 14 14 14 11 11 12 10 9 10 10 9 8 4 3 3 3 3 4 5 6 3 3 4 4 5 6 5 6 7 7
11 11 12 12 12 13 14 14 14 14 12 11 11 11 10 10 11 11 10 9 7 6 4 3 3 4 5 6 7 7 7 6 7 8 8 7 6 6
11 11 11 12 12 13 14 13 13 13 11 12 12 11 10 11 11 11 10 9 7 7 7 6 5 3 4 5 8 9 8 9 7 7 7 7 8 8
11 12 12 12 12 13 13 13 13 12 12 12 12 11 10 11 11 11 11 10 8 7 7 7 6 6 7 8 9 9 9 8 8 8 8 8 7 8
11 12 12 12 12 13 13 13 13 12 12 12 12 12 11 12 11 11 11 10 9 7 7 7 7 7 8 8 8 9 8 8 9 9 8 8 8 7